• In India
  • List of Countries
  • For 7 days
  • Water Temperature
  • Weather Map
  • Weather Widgets
  • user-avatar
    Login

    Hourly Weather New Delhi

    Today, 22 October, Tuesday

    Time Temperature Precipitation Wind Pressure Humidity
    00:00 +28°C° 0 mm 1 mps 738 mmHg 27%
    01:00 +27°C° 0 mm 1 mps 737 mmHg 27%
    02:00 +27°C° 0 mm 1 mps 737 mmHg 28%
    03:00 +27°C° 0 mm 1 mps 737 mmHg 28%
    04:00 +26°C° 0 mm 1 mps 737 mmHg 29%
    05:00 +26°C° 0 mm 2 mps 737 mmHg 34%
    06:00 +26°C° 0 mm 2 mps 738 mmHg 33%
    07:00 +27°C° 0 mm 2 mps 738 mmHg 32%
    08:00 +28°C° 0 mm 3 mps 739 mmHg 31%
    09:00 +29°C° 0 mm 3 mps 739 mmHg 27%
    10:00 +31°C° 0 mm 3 mps 738 mmHg 24%
    11:00 +34°C° 0 mm 4 mps 739 mmHg 20%
    12:00 +34°C° 0 mm 4 mps 738 mmHg 19%
    13:00 +35°C° 0 mm 4 mps 737 mmHg 17%
    14:00 +36°C° 0 mm 4 mps 737 mmHg 16%
    15:00 +35°C° 0 mm 4 mps 736 mmHg 17%
    16:00 +34°C° 0 mm 3 mps 736 mmHg 18%
    17:00 +33°C° 0 mm 3 mps 736 mmHg 20%
    18:00 +32°C° 0 mm 2 mps 736 mmHg 21%
    19:00 +31°C° 0 mm 1 mps 736 mmHg 22%
    20:00 +28°C° 0 mm 0 mps 737 mmHg 23%
    21:00 +28°C° 0 mm 0 mps 737 mmHg 24%
    22:00 +27°C° 0 mm 0 mps 737 mmHg 25%
    23:00 +26°C° 0 mm 0 mps 737 mmHg 26%

    Tomorrow, 23 October, Wednesday

    Time Temperature Precipitation Wind Pressure Humidity
    00:00 +26°C° 0 mm 0 mps 737 mmHg 27%
    01:00 +26°C° 0 mm 0 mps 736 mmHg 27%
    02:00 +25°C° 0 mm 0 mps 736 mmHg 27%
    03:00 +25°C° 0 mm 0 mps 736 mmHg 28%
    04:00 +25°C° 0 mm 0 mps 736 mmHg 29%
    05:00 +26°C° 0 mm 1 mps 736 mmHg 29%
    06:00 +27°C° 0 mm 1 mps 737 mmHg 28%
    07:00 +28°C° 0 mm 1 mps 737 mmHg 27%
    08:00 +28°C° 0 mm 1 mps 737 mmHg 26%
    09:00 +30°C° 0 mm 1 mps 738 mmHg 24%
    10:00 +32°C° 0 mm 1 mps 738 mmHg 21%
    11:00 +33°C° 0 mm 1 mps 738 mmHg 18%
    12:00 +35°C° 0 mm 2 mps 737 mmHg 17%
    13:00 +36°C° 0 mm 2 mps 736 mmHg 15%
    14:00 +37°C° 0 mm 3 mps 735 mmHg 14%
    15:00 +36°C° 0 mm 3 mps 735 mmHg 15%
    16:00 +35°C° 0 mm 2 mps 735 mmHg 16%
    17:00 +34°C° 0 mm 2 mps 735 mmHg 18%
    18:00 +32°C° 0 mm 2 mps 735 mmHg 19%
    19:00 +32°C° 0 mm 2 mps 736 mmHg 21%
    20:00 +31°C° 0 mm 2 mps 736 mmHg 22%
    21:00 +30°C° 0 mm 2 mps 737 mmHg 25%
    22:00 +29°C° 0 mm 1 mps 737 mmHg 28%
    23:00 +28°C° 0 mm 1 mps 737 mmHg 31%

    Day after tomorrow, 24 October, Thursday

    Time Temperature Precipitation Wind Pressure Humidity
    00:00 +28°C° 0 mm 1 mps 737 mmHg 32%
    01:00 +27°C° 0 mm 2 mps 737 mmHg 34%
    02:00 +27°C° 0 mm 2 mps 737 mmHg 36%
    03:00 +26°C° 0 mm 2 mps 737 mmHg 37%
    04:00 +26°C° 0 mm 2 mps 737 mmHg 38%
    05:00 +26°C° 0 mm 2 mps 737 mmHg 39%
    06:00 +26°C° 0 mm 2 mps 738 mmHg 39%
    07:00 +26°C° 0 mm 2 mps 738 mmHg 38%
    08:00 +27°C° 0 mm 2 mps 739 mmHg 38%
    09:00 +29°C° 0 mm 2 mps 739 mmHg 33%
    10:00 +31°C° 0 mm 1 mps 739 mmHg 29%
    11:00 +33°C° 0 mm 1 mps 739 mmHg 24%
    12:00 +34°C° 0 mm 1 mps 738 mmHg 21%
    13:00 +34°C° 0 mm 1 mps 737 mmHg 19%
    14:00 +33°C° 0 mm 0 mps 736 mmHg 17%
    15:00 +35°C° 0 mm 1 mps 736 mmHg 17%
    16:00 +34°C° 0 mm 1 mps 736 mmHg 18%
    17:00 +33°C° 0 mm 1 mps 736 mmHg 19%
    18:00 +32°C° 0 mm 1 mps 736 mmHg 21%
    19:00 +32°C° 0 mm 2 mps 737 mmHg 23%
    20:00 +31°C° 0 mm 2 mps 737 mmHg 25%
    21:00 +30°C° 0 mm 2 mps 737 mmHg 28%
    22:00 +29°C° 0 mm 2 mps 738 mmHg 31%
    23:00 +28°C° 0 mm 3 mps 738 mmHg 34%

    25 October, Friday

    Time Temperature Precipitation Wind Pressure Humidity
    00:00 +28°C° 0 mm 3 mps 738 mmHg 36%
    01:00 +27°C° 0 mm 3 mps 738 mmHg 38%
    02:00 +27°C° 0 mm 2 mps 738 mmHg 39%
    03:00 +26°C° 0 mm 2 mps 738 mmHg 40%
    04:00 +26°C° 0 mm 2 mps 738 mmHg 41%
    05:00 +26°C° 0 mm 2 mps 738 mmHg 42%
    06:00 +26°C° 0 mm 2 mps 738 mmHg 42%
    07:00 +26°C° 0 mm 3 mps 739 mmHg 43%
    08:00 +26°C° 0 mm 3 mps 739 mmHg 43%
    09:00 +28°C° 0 mm 3 mps 739 mmHg 38%
    10:00 +30°C° 0 mm 3 mps 739 mmHg 34%
    11:00 +33°C° 0 mm 3 mps 739 mmHg 30%
    12:00 +34°C° 0 mm 2 mps 738 mmHg 27%
    13:00 +34°C° 0 mm 2 mps 738 mmHg 24%
    14:00 +35°C° 0 mm 2 mps 737 mmHg 22%
    15:00 +35°C° 0 mm 2 mps 737 mmHg 23%
    16:00 +34°C° 0 mm 2 mps 737 mmHg 23%
    17:00 +32°C° 0 mm 2 mps 736 mmHg 24%
    18:00 +32°C° 0 mm 2 mps 737 mmHg 27%
    19:00 +31°C° 0 mm 3 mps 737 mmHg 30%
    20:00 +30°C° 0 mm 3 mps 738 mmHg 32%
    21:00 +29°C° 0 mm 3 mps 738 mmHg 35%
    22:00 +28°C° 0 mm 3 mps 738 mmHg 37%
    23:00 +28°C° 0 mm 3 mps 738 mmHg 39%

    26 October, Saturday

    Time Temperature Precipitation Wind Pressure Humidity
    00:00 +27°C° 0 mm 3 mps 738 mmHg 40%
    01:00 +27°C° 0 mm 3 mps 738 mmHg 41%
    02:00 +26°C° 0 mm 3 mps 738 mmHg 42%
    03:00 +26°C° 0 mm 3 mps 739 mmHg 44%
    04:00 +25°C° 0 mm 2 mps 739 mmHg 45%
    05:00 +25°C° 0 mm 2 mps 739 mmHg 47%
    06:00 +26°C° 0 mm 2 mps 739 mmHg 46%
    07:00 +26°C° 0 mm 2 mps 740 mmHg 44%
    08:00 +27°C° 0 mm 2 mps 741 mmHg 43%
    09:00 +28°C° 0 mm 2 mps 741 mmHg 39%
    10:00 +30°C° 0 mm 2 mps 741 mmHg 35%
    11:00 +31°C° 0 mm 2 mps 741 mmHg 31%
    12:00 +32°C° 0 mm 2 mps 740 mmHg 29%
    13:00 +33°C° 0 mm 1 mps 740 mmHg 26%
    14:00 +32°C° 0 mm 0 mps 739 mmHg 23%
    15:00 +33°C° 0 mm 1 mps 739 mmHg 24%
    16:00 +33°C° 0 mm 1 mps 738 mmHg 24%
    17:00 +32°C° 0 mm 1 mps 738 mmHg 24%
    18:00 +31°C° 0 mm 1 mps 739 mmHg 26%
    19:00 +30°C° 0 mm 2 mps 739 mmHg 28%
    20:00 +30°C° 0 mm 2 mps 739 mmHg 30%
    21:00 +29°C° 0 mm 2 mps 739 mmHg 33%
    22:00 +28°C° 0 mm 2 mps 740 mmHg 37%
    23:00 +28°C° 0 mm 2 mps 740 mmHg 40%

    27 October, Sunday

    Time Temperature Precipitation Wind Pressure Humidity
    00:00 +27°C° 0 mm 2 mps 740 mmHg 41%
    01:00 +27°C° 0 mm 2 mps 740 mmHg 42%
    02:00 +26°C° 0 mm 2 mps 739 mmHg 44%
    03:00 +26°C° 0 mm 2 mps 739 mmHg 45%
    04:00 +26°C° 0 mm 1 mps 739 mmHg 46%
    05:00 +25°C° 0 mm 1 mps 739 mmHg 47%
    06:00 +26°C° 0 mm 1 mps 740 mmHg 46%
    07:00 +26°C° 0 mm 1 mps 741 mmHg 45%
    08:00 +27°C° 0 mm 1 mps 741 mmHg 44%
    09:00 +28°C° 0 mm 2 mps 741 mmHg 40%
    10:00 +30°C° 0 mm 2 mps 741 mmHg 36%
    11:00 +31°C° 0 mm 2 mps 741 mmHg 33%
    12:00 +32°C° 0 mm 1 mps 740 mmHg 30%
    13:00 +33°C° 0 mm 1 mps 740 mmHg 27%
    14:00 +32°C° 0 mm 0 mps 739 mmHg 24%
    15:00 +31°C° 0 mm 0 mps 739 mmHg 25%
    16:00 +33°C° 0 mm 1 mps 739 mmHg 25%
    17:00 +32°C° 0 mm 1 mps 738 mmHg 26%
    18:00 +31°C° 0 mm 1 mps 739 mmHg 27%
    19:00 +31°C° 0 mm 1 mps 739 mmHg 28%
    20:00 +30°C° 0 mm 1 mps 739 mmHg 30%
    21:00 +29°C° 0 mm 2 mps 739 mmHg 32%
    22:00 +29°C° 0 mm 2 mps 740 mmHg 33%
    23:00 +28°C° 0 mm 2 mps 740 mmHg 35%

    28 October, Monday

    Time Temperature Precipitation Wind Pressure Humidity
    00:00 +28°C° 0 mm 2 mps 740 mmHg 37%
    01:00 +27°C° 0 mm 1 mps 740 mmHg 38%
    02:00 +27°C° 0 mm 1 mps 740 mmHg 40%
    03:00 +26°C° 0 mm 1 mps 740 mmHg 42%
    04:00 +26°C° 0 mm 1 mps 740 mmHg 43%
    05:00 +26°C° 0 mm 1 mps 740 mmHg 45%
    06:00 +26°C° 0 mm 1 mps 740 mmHg 44%
    07:00 +27°C° 0 mm 1 mps 741 mmHg 43%
    08:00 +27°C° 0 mm 1 mps 741 mmHg 41%
    09:00 +29°C° 0 mm 1 mps 741 mmHg 37%
    10:00 +31°C° 0 mm 1 mps 741 mmHg 33%
    11:00 +32°C° 0 mm 2 mps 741 mmHg 28%
    12:00 +33°C° 0 mm 1 mps 740 mmHg 26%
    13:00 +34°C° 0 mm 1 mps 739 mmHg 23%
    14:00 +34°C° 0 mm 1 mps 739 mmHg 20%
    15:00 +34°C° 0 mm 1 mps 739 mmHg 21%
    16:00 +34°C° 0 mm 2 mps 738 mmHg 22%
    17:00 +32°C° 0 mm 2 mps 738 mmHg 22%
    18:00 +32°C° 0 mm 2 mps 739 mmHg 24%
    19:00 +31°C° 0 mm 2 mps 739 mmHg 26%
    20:00 +30°C° 0 mm 2 mps 739 mmHg 28%
    21:00 +29°C° 0 mm 2 mps 740 mmHg 31%
    22:00 +29°C° 0 mm 2 mps 740 mmHg 34%
    23:00 +28°C° 0 mm 2 mps 740 mmHg 36%
    Show more